Location: Niedergestelen
(46.3129°N, 7.7822°E)
Time: 06:24:10
(UTC+00:00)

ARGOS - Pass Details

Date: 01 December 2020
Orbit: 820 x 835 km, 98.4° (Epoch: 18 January)

Event Time Altitude Azimuth Distance (km) Brightness Sun altitude
Exits shadow 18:08:32 32° 17° (NNE) 1,390 4.1 -24.2°
Drops below altitude 10° 18:11:39 10° 356° (N) 2,443 5.6 -24.7°
Sets 18:14:04 0° 351° (N) 3,378 6.4 -25.2°
